Duchifat 3
1 44854U 19089C   25070.75785249  .00049456  00000-0  13452-2 0  9998
2 44854  36.9463 202.4641 0005469 160.8809 199.2150 15.36535663289079
TO-108
1 44881U 19093C   25070.83621035  .00002136  00000-0  25468-3 0  9999
2 44881  97.7989 148.3576 0014435 161.1446 199.0307 14.85250901282758
FloripaSat 1
1 44885U 19093G   25070.82696081  .00009666  00000-0  84948-3 0  9998
2 44885  97.8177 158.3423 0011584 145.5762 214.6212 14.96714501283318
RS-44
1 44909U 19096E   25070.88154462  .00000047  00000-0  13591-3 0  9996
2 44909  82.5179 286.8922 0218046 145.0949 216.4674 12.79739009243264
UPMSat 2
1 46276U 20061E   25070.89750524  .00057638  00000-0  83615-3 0  9993
2 46276  97.2567 143.0619 0001545 169.6313 190.4974 15.55653419251467
SALSAT
1 46495U 20068K   25070.86676780  .00013459  00000-0  61620-3 0  9996
2 46495  97.8524  44.9212 0014185 109.4519 250.8249 15.20546080244882
CubeSX-Sirius-HSE
1 47951U 21022V   25070.86542635  .00113349  00000-0  15160-2 0  9992
2 47951  97.4302 339.1210 0003563 238.3827 121.7081 15.57637866219727
CubeSX-HSE
1 47952U 21022W   25070.83674012  .00116769  00000-0  15265-2 0  9990
2 47952  97.4303 339.2910 0003760 225.9238 134.1708 15.58236985219737
KSU-Cubesat
1 47954U 21022Y   25070.82181231  .00669439  18482-3  19521-2 0  9999
2 47954  97.4222 344.3247 0006262 147.2110 212.9554 15.92820338219771
GRBAlpha
1 47959U 21022AD  25070.86585519  .00110225  00000-0  14537-2 0  9995
2 47959  97.4291 339.4695 0003608 236.1402 123.9510 15.58024821218561
Orbicraft-Zorkiy
1 47960U 21022AE  25070.72465249  .00260884  00000-0  18275-2 0  9999
2 47960  97.4264 342.8866 0003734 163.5419 196.5967 15.73455491219439
TUBIN
1 48900U 21059X   25070.81589785  .00050603  00000-0  88909-3 0  9994
2 48900  97.6683 233.4310 0004970 214.2955 145.7975 15.50341839206089
LEDSAT
1 49069U 21073D   25070.75909297  .00059939  00000-0  11633-2 0  9994
2 49069  97.3991 149.3836 0011408  50.0592 310.1658 15.47387439197481
CUTE
1 49263U 21088D   25070.13583272  .00018287  00000-0  42198-3 0  9991
2 49263  97.4603 144.0105 0009268 203.6043 156.4780 15.42565276190467
TeikyoSat 4
1 49396U 21102B   25070.53683648  .00003984  00000-0  26964-3 0  9998
2 49396  97.4230 112.1880 0014150  83.8285 276.4555 15.06979482182987
Z-Sat
1 49399U 21102E   25070.85951383  .00007568  00000-0  42839-3 0  9991
2 49399  97.3939 115.0731 0019793  58.5823 301.7341 15.13147453183403
KOSEN 1
1 49402U 21102H   25070.84603873  .00010717  00000-0  52310-3 0  9998
2 49402  97.3849 117.8364 0017203  38.3557 321.8897 15.18328067183668
HO-113
1 50466U 21131B   25070.89370537  .00001186  00000-0  38588-3 0  9996
2 50466  98.5101 160.7071 0004866  57.2827 302.8830 14.40604024168536
IRIS-A
1 51044U 22002BN  25070.73915290  .00117039  00000-0  12714-2 0  9998
2 51044  97.3389 146.5898 0003892 165.1597 194.9776 15.63093346175705
Foresail-1
1 52766U 22057AL  25070.84485663  .00102747  00000-0  11618-2 0  9990
2 52766  97.5997 214.0994 0007045 248.5462 111.5045 15.62085601155754
SNUGLITE 2
1 52899U 22065F   25070.82923789  .00002564  00000-0  51170-3 0  9994
2 52899  98.1520 213.7721 0008032  42.3216 317.8604 14.62770688143369
IO-117
1 53106U 22080B   25051.21822557 -.00000003  00000-0  00000+0 0  9995
2 53106  70.1434 106.3440 0008542  48.0089 312.1297  6.42557744 61200
UmKA 1 (RS40S)
1 57172U 23091G   25070.89301407  .00009937  00000-0  55519-3 0  9999
2 57172  97.5716 126.7793 0013504 284.4907  75.4826 15.13634675 93905
CubeBel-2 (EU11S)
1 57175U 23091K   25070.86715844  .00013303  00000-0  68189-3 0  9992
2 57175  97.5716 127.4163 0011456 294.7426  65.2614 15.16637544 93948
VERONIKA
1 58261U 23174F   25070.80005828  .00078315  00000-0  14638-2 0  9992
2 58261  97.4236 153.0997 0005708   3.2372 356.8914 15.48449933 74698
KAFASAT
1 58317U 23174BP  25070.57133075  .00354427  00000-0  21293-2 0  9990
2 58317  97.4082 156.9839 0006605 285.7002  74.3535 15.76744885 74955
ENSO
1 58470U 23185J   25070.86849983  .00054056  00000-0  11638-2 0  9993
2 58470  97.3852 143.7978 0007838  50.6845 309.5097 15.44413156 71132
EIRSAT-1
1 58472U 23185L   25070.88161738  .00072713  00000-0  13226-2 0  9997
2 58472  97.3843 144.6534 0006304  49.3534 310.8265 15.49250106 71196
SONATE-2
1 59112U 24043Q   25070.59713090  .00023707  00000-0  78601-3 0  9993
2 59112  97.4992 200.3129 0012035  76.7730 283.4853 15.31197980 56545
MO-122
1 60209U 24125G   25070.82482858  .00024986  00000-0  81589-3 0  9993
2 60209  97.2916 283.6366 0022010  98.7003 261.6733 15.31507730 38190
GRBBeta
1 60237U 24128C   25070.60185380  .00008689  00000-0  67413-3 0  9995
2 60237  61.9932  33.0172 0043642  37.3553 323.0558 15.01263322 36685
Curium One
1 60242U 24128H   25070.23239014  .00013014  00000-0  96105-3 0  9992
2 60242  61.9832  33.7317 0043792  32.4386 327.9383 15.02798519 36641
ROBUSTA-3A
1 60243U 24128J   25070.34305041  .00012182  00000-0  91122-3 0  9998
2 60243  61.9900  33.8957 0042248  30.2994 330.0526 15.02413249 36654
CatSat
1 60246U 24125J   25070.52401912  .00013316  00000-0  47747-3 0  9996
2 60246  97.2707 283.4694 0046192  56.0192 304.5423 15.27803578 36223
HYPERVIEW-1G (RS66S)
1 61772U 24199AP  25070.87364387  .00027715  00000-0  94459-3 0  9994
2 61772  97.3693 300.1384 0015875 148.4184 211.8012 15.30219636 63210
AO-123
1 61781U 24199AY  25070.90257173  .00012260  00000-0  47159-3 0  9996
2 61781  97.3701 299.8098 0017217 150.4054 209.8163 15.26400405 63199
ZIMSAT 2
1 61783U 24199BA  25070.88197743  .00040873  00000-0  13003-2 0  9992
2 61783  97.3689 300.2730 0016729 147.7116 212.5153 15.32343063 66377
POEM 4 (BGS ARPIT)
1 62461U 24253C   25070.75553537  .00278453  40568-4  76596-3 0  9991
2 62461  55.2146 275.7087 0005699 129.0306 231.1257 15.93534004 11221
HADES-R (SO-124)
1 62690U 25009CK  25070.20951399  .00036630  00000-0  16832-2 0  9991
2 62690  97.4173 151.8705 0002272  68.8186 291.3292 15.20274818  8377
